{"data":{"norad_id":63904,"epoch":"2026-05-25T04:25:57.688608Z","epoch_age_seconds":49308,"freshness":"FRESH","line1":"1 63904U 25095Q   26145.18469547  .00014501  00000+0  53525-3 0  9998","line2":"2 63904  43.0008 104.4803 0000515 251.8975 108.1821 15.27590468 59470","mean_motion":15.27590468,"eccentricity":5.15e-5,"inclination_deg":43.0008,"raan_deg":104.4803,"arg_perigee_deg":251.8975,"mean_anomaly_deg":108.1821,"bstar":0.00053525,"rev_number":5947,"period_min":94.266102739259,"perigee_km":482.66440179112,"apogee_km":483.3711007305,"semimajor_km":6861.1547512608,"source":"CELESTRAK","updated_at":"2026-05-25T13:38:20.177854Z"}}